Terminal Aerodrome Forecast
Issued by NWS Cleveland, OH

Home | Current Version | Previous Version | Graphics & Text | Print | Product List | Glossary On
Versions: 1 2 3 4 5 6 7 8 9 10 11 12 13 14 15 16 17 18 19 20 21
740
FTUS41 KCLE 270803 AAA
TAFYNG
TAF AMD
KYNG 270803Z 2708/2806 03007KT P6SM OVC007
     FM271200 03008KT P6SM BKN012
     FM271400 03010KT P6SM SCT250=

USA.gov is the U.S. government's official web portal to all federal, state and local government web resources and services.